Regional Weather Roundup
Issued by NWS

Home | Current Version | Previous Version | Graphics & Text | Print | Product List | Glossary On
Versions: 1 2 3 4 5 6 7 8 9 10 11 12 13 14 15 16 17 18 19 20 21 22 23 24 25 26 27 28 29 30 31 32 33 34 35 36 37 38 39 40 41 42 43 44 45 46 47 48 49 50
000
ASUS43 KBIS 140520
RWRND

NORTH DAKOTA REGIONAL WEATHER ROUNDUP
NATIONAL WEATHER SERVICE BISMARCK ND
1200 AM CDT MON JUL 14 2014

NOTE: "FAIR" INDICATES FEW OR NO CLOUDS BELOW 12,000 FEET WITH NO
SIGNIFICANT WEATHER AND/OR OBSTRUCTIONS TO VISIBILITY.


NDZ001>003-009>011-017-140600-
NORTHWEST NORTH DAKOTA

CITY           SKY/WX    TMP DP  RH WIND       PRES   REMARKS
WILLISTON      CLEAR     58  46  64 N8        30.19R
MINOT          CLOUDY    58  47  66 NW8       30.11R
MINOT AFB      CLOUDY    58  50  74 N9        30.12R
$$

NDZ018>021-031>035-040>046-140600-
SOUTHWEST NORTH DAKOTA

CITY           SKY/WX    TMP DP  RH WIND       PRES   REMARKS
BISMARCK       CLEAR     61  47  59 N7        30.10R
DICKINSON      CLEAR     55  42  61 N8        30.16R
GARRISON         N/A     52  49  89 NW7       30.12R
HETTINGER ARPT CLEAR     55  44  66 N9        30.18R
$$

NDZ004>008-012>016-024-026-027-054-140600-
NORTHEAST NORTH DAKOTA

CITY           SKY/WX    TMP DP  RH WIND       PRES   REMARKS
GRAND FORKS    CLOUDY    55  50  83 N16G24    29.96R
GRND FRKS AFB  MOCLDY    57  52  82 NE14      29.97R
DEVILS LAKE    MOCLDY    57  45  62 NW18G28   30.01S
$$

NDZ022-023-025-028>030-036>039-047>053-140600-
SOUTHEAST NORTH DAKOTA

CITY           SKY/WX    TMP DP  RH WIND       PRES   REMARKS
FARGO          CLOUDY    63  47  55 NW10      29.95S
JAMESTOWN      CLOUDY    60  47  61 N7        30.02R
$$




USA.gov is the U.S. government's official web portal to all federal, state and local government web resources and services.